This is the latest recevied weather packets stored in our database for station/object KC3QLX. If no packets are shown the sender has not sent any weather packets the latest 10 day(s).
| Time | Temp. | Humidity | Pressure | Rain* | Wind** | Luminosity | Snow |
|---|---|---|---|---|---|---|---|
| 1778086753 | 15.56° C | 99% | 1007.3 hPa | 4.32 mm | - | 114 W/m² | - |
| 1778086451 | 15.56° C | 99% | 1007.3 hPa | 6.1 mm | - | 88 W/m² | - |
| 1778086147 | 15.56° C | 99% | 1007 hPa | 4.83 mm | - | 172 W/m² | - |
| 1778085843 | 15.56° C | 99% | 1007.2 hPa | 4.83 mm | - | 151 W/m² | - |
| 1778085536 | 15.56° C | 99% | 1007.1 hPa | 4.32 mm | - | 131 W/m² | - |
| 1778085230 | 15.56° C | 99% | 1007.2 hPa | 1.27 mm | - | 92 W/m² | - |
| 1778084925 | 15° C | 99% | 1007.4 hPa | 0 mm | - | 32 W/m² | - |
| 1778084623 | 15° C | 99% | 1007.5 hPa | 0 mm | - | 42 W/m² | - |
| 1778084315 | 15° C | 99% | 1007.3 hPa | 0 mm | - | 43 W/m² | - |
| 1778084012 | 15° C | 99% | 1007.6 hPa | 0 mm | - | 27 W/m² | - |
| 1778083710 | 15° C | 99% | 1007.3 hPa | 0 mm | - | 49 W/m² | - |
| 1778083406 | 15.56° C | 99% | 1007.5 hPa | 0 mm | - | 32 W/m² | - |
| 1778083105 | 15° C | 99% | 1007.4 hPa | 1.78 mm | - | 52 W/m² | - |
| 1778082801 | 15° C | 99% | 1007.4 hPa | 1.78 mm | - | 63 W/m² | - |
| 1778081674 | 15.56° C | 99% | 1007.6 hPa | 4.83 mm | - | 88 W/m² | - |
| 1778081371 | 15.56° C | 99% | 1007.2 hPa | 4.32 mm | - | 81 W/m² | - |
| 1778081067 | 15.56° C | 99% | 1007.3 hPa | 4.32 mm | - | 62 W/m² | - |
| 1778080766 | 15.56° C | 99% | 1007.8 hPa | 6.1 mm | - | 65 W/m² | - |
| 1778080463 | 15.56° C | 98% | 1007.9 hPa | 7.87 mm | - | 93 W/m² | - |
| 1778080161 | 15.56° C | 98% | 1008.1 hPa | 9.65 mm | - | 77 W/m² | - |
| 1778079856 | 15.56° C | 98% | 1008.3 hPa | 6.1 mm | - | 69 W/m² | - |
| 1778079554 | 15.56° C | 98% | 1008.3 hPa | 3.05 mm | - | 26 W/m² | - |
| 1778079250 | 15.56° C | 98% | 1008 hPa | 4.83 mm | - | 45 W/m² | - |
| 1778078948 | 15.56° C | 98% | 1007.8 hPa | 4.32 mm | - | 63 W/m² | - |
| 1778078643 | 15.56° C | 97% | 1007.8 hPa | 3.05 mm | - | 120 W/m² | - |
* Rain latest hour (hover to see other rain measurements)
** Current wind speed in m/s (hover to see current wind gust speed)